FW5282 Weather Reports


Display with metric or nautical units.
time (UTC)temp
F
wind
direction
speed
MPH
gust
MPH
rain 1hr
in
rain 24hr
in
rain mn
in
humidity
%
barometer
mb
20260504081547 58 200 1.0 3.0 0.00 0.91 0.08 94 1011.3
20260504081030 58 191 1.0 4.0 0.00 0.91 0.08 94 1011.3
20260504080533 58 223 1.0 4.0 0.00 0.91 0.08 94 1011.3
20260504050545 55 207 2.0 3.0 0.04 1.10 0.06 96 1010.4
20260504045606 56 211 1.0 3.0 0.04 1.38 0.06 96 1010.4
20260504045032 56 221 1.0 2.0 0.04 1.38 0.06 96 1010.3
20260504044533 56 221 1.0 4.0 0.04 1.38 0.06 96 1010.3
20260504044033 56 216 1.0 4.0 0.08 1.38 0.06 96 1010.2
20260504043540 56 277 2.0 4.0 0.04 1.34 0.06 96 1010.3
20260504043037 56 217 1.0 4.0 0.04 1.34 0.06 96 1010.3
20260504042546 56 248 1.0 4.0 0.04 1.34 0.06 96 1010.3
20260504042045 56 263 1.0 6.0 0.04 1.34 0.06 96 1010.3
20260504041533 56 236 2.0 6.0 0.04 1.34 0.06 96 1010.2
20260504041030 56 227 2.0 5.0 0.04 1.34 0.06 96 1010.3
20260504040540 56 196 2.0 4.0 0.04 1.34 0.06 96 1010.3
20260504040028 56 210 1.0 4.0 0.04 1.50 0.06 96 1010.3
20260504035542 56 232 2.0 6.0 0.04 1.50 0.06 96 1010.3
20260504035038 56 227 2.0 6.0 0.04 1.50 0.06 96 1010.3
20260504034531 56 220 2.0 5.0 0.08 1.50 0.06 96 1010.3
20260504034030 56 227 2.0 6.0 0.04 1.46 0.05 96 1010.3
20260504033601 57 225 2.0 8.0 0.04 1.46 0.05 96 1010.4
20260504033101 57 219 2.0 8.0 0.16 1.46 0.05 96 1010.3
20260504032530 57 194 3.0 5.0 0.16 1.46 0.05 96 1010.4
20260504032038 57 219 2.0 7.0 0.16 1.46 0.05 95 1010.4
20260504031538 57 189 3.0 7.0 0.16 1.46 0.05 95 1010.4
20260504031035 57 221 3.0 5.0 0.20 1.46 0.05 96 1010.4
20260504030532 57 195 2.0 5.0 0.24 1.46 0.05 95 1010.4
20260504030032 57 224 3.0 5.0 0.24 1.46 0.05 96 1010.5
20260504025536 57 238 1.0 5.0 0.24 1.46 0.05 96 1010.5
20260504025041 57 214 2.0 5.0 0.24 1.46 0.05 96 1010.5
20260504024547 57 202 2.0 4.0 0.20 1.42 0.04 95 1010.6
20260504024050 57 218 2.0 4.0 0.20 1.42 0.04 95 1010.6
20260504023534 57 218 2.0 6.0 0.20 1.42 0.04 95 1010.6
20260504023036 57 213 3.0 7.0 0.08 1.30 0.02 95 1010.6
20260504022542 57 217 3.0 7.0 0.08 1.30 0.02 95 1010.6
20260504022045 57 227 3.0 7.0 0.08 1.30 0.02 95 1010.6
20260504021540 57 213 4.0 7.0 0.08 1.30 0.02 95 1010.5
20260504021031 57 232 2.0 8.0 0.00 1.22 0.00 95 1010.6
20260504020559 58 227 3.0 8.0 0.00 1.22 0.00 95 1010.6
20260504020101 58 243 3.0 8.0 0.00 1.22 0.00 94 1010.6
20260504015534 57 229 3.0 8.0 0.00 1.22 0.00 95 1010.5
20260504015039 57 225 3.0 6.0 0.00 1.22 0.00 95 1010.6
20260504014536 57 219 3.0 7.0 0.00 1.22 0.00 95 1010.6
20260504014035 57 223 2.0 7.0 0.00 1.22 0.00 95 1010.6
20260504013544 57 198 2.0 5.0 0.00 1.22 0.00 95 1010.5
20260504013053 57 224 2.0 5.0 0.00 1.22 0.00 95 1010.6
20260504012541 57 219 2.0 5.0 0.00 1.22 0.00 95 1010.6
20260504012103 57 225 2.0 5.0 0.00 1.22 0.00 95 1010.6
20260504011601 57 234 2.0 4.0 0.00 1.22 0.00 95 1010.6
20260504011035 57 199 1.0 4.0 0.00 1.22 0.00 95 1010.6
20260504010547 57 205 2.0 4.0 0.00 1.22 0.00 95 1010.6
20260504010036 57 215 2.0 4.0 0.00 1.22 0.00 95 1010.6
20260504005608 57 209 2.0 4.0 0.00 1.22 0.00 95 1010.7
20260504005031 57 208 2.0 4.0 0.00 1.22 0.00 95 1010.7
20260504004534 57 203 1.0 4.0 0.00 1.22 0.00 95 1010.8
20260504004033 57 192 2.0 4.0 0.00 1.22 0.00 95 1010.8
20260504003538 57 220 2.0 4.0 0.00 1.22 0.00 95 1010.9
20260504003102 57 209 1.0 4.0 0.00 1.22 0.00 95 1010.8
20260504002530 57 214 1.0 4.0 0.00 1.22 0.00 95 1010.9
20260504002056 57 205 1.0 4.0 0.00 1.22 0.00 95 1010.9
20260504001537 57 217 1.0 4.0 0.00 1.22 0.00 95 1010.9
20260504001037 57 191 1.0 4.0 0.00 1.22 0.00 95 1010.8
20260504000536 57 206 1.0 4.0 0.00 1.22 0.00 95 1010.7
20260504000029 57 193 2.0 6.0 0.00 1.22 0.24 95 1010.7
20260503235530 57 223 2.0 6.0 0.00 1.22 0.24 95 1010.8
20260503235029 57 175 1.0 3.0 0.00 1.22 0.24 96 1010.9
20260503234533 57 211 2.0 3.0 0.00 1.22 0.24 96 1010.9
20260503234038 57 213 2.0 3.0 0.00 1.22 0.24 96 1010.9
20260503233606 57 194 1.0 4.0 0.00 1.22 0.24 96 1011.0
20260503233044 57 191 1.0 4.0 0.00 1.22 0.24 96 1010.9
20260503232534 57 197 1.0 3.0 0.00 1.22 0.24 96 1011.0
20260503232039 57 173 1.0 3.0 0.00 1.22 0.24 96 1011.1
20260503231555 57 178 1.0 3.0 0.00 1.22 0.24 96 1011.1
20260503231029 57 188 1.0 3.0 0.00 1.22 0.24 96 1011.2
20260503230539 57 208 1.0 2.0 0.00 1.22 0.24 95 1011.2
20260503230029 57 212 1.0 2.0 0.00 1.22 0.24 95 1011.1
20260503225535 57 223 1.0 3.0 0.00 1.22 0.24 95 1011.0
20260503225032 57 223 1.0 3.0 0.00 1.22 0.24 95 1011.0
20260503224544 57 221 1.0 2.0 0.00 1.22 0.24 95 1010.9
20260503224045 56 197 1.0 2.0 0.00 1.22 0.24 95 1010.9
20260503223531 56 143 0.0 1.0 0.00 1.22 0.24 95 1010.8
20260503223035 56 143 0.0 1.0 0.00 1.22 0.24 95 1010.8
20260503222531 57 152 0.0 1.0 0.00 1.22 0.24 95 1010.7
20260503222034 57 152 0.0 2.0 0.00 1.22 0.24 95 1010.8
20260503221543 57 152 0.0 2.0 0.00 1.22 0.24 95 1010.8
20260503221045 57 138 1.0 3.0 0.00 1.22 0.24 95 1010.7
20260503220529 57 172 2.0 3.0 0.00 1.22 0.24 95 1010.8
20260503220045 57 188 0.0 2.0 0.00 1.22 0.24 95 1010.9
20260503215529 57 199 0.0 2.0 0.00 1.22 0.24 95 1011.0
20260503215035 57 219 0.0 2.0 0.00 1.22 0.24 95 1010.9
20260503214537 58 188 0.0 1.0 0.00 1.22 0.24 95 1010.9
20260503214102 58 198 0.0 1.0 0.00 1.22 0.24 95 1010.8
20260503213546 58 198 0.0 5.0 0.00 1.22 0.24 95 1010.8
20260503213052 58 154 2.0 5.0 0.00 1.22 0.24 95 1010.7
20260503212537 58 179 0.0 2.0 0.00 1.22 0.24 95 1010.7
20260503212040 58 182 1.0 2.0 0.00 1.22 0.24 95 1010.8
20260503211544 58 189 1.0 3.0 0.00 1.22 0.24 95 1010.7
20260503211046 58 200 1.0 3.0 0.00 1.22 0.24 95 1010.8
20260503210538 58 196 1.0 3.0 0.00 1.22 0.24 95 1010.9
20260503210032 58 215 2.0 3.0 0.00 1.22 0.24 95 1010.9
20260503205541 58 227 1.0 4.0 0.00 1.22 0.24 95 1010.9
20260503205037 58 207 1.0 5.0 0.00 1.22 0.24 95 1011.0
20260503204543 58 160 2.0 4.0 0.00 1.22 0.24 95 1010.9
20260503204041 58 180 1.0 4.0 0.00 1.22 0.24 95 1010.9
20260503203537 58 198 1.0 5.0 0.00 1.22 0.24 95 1010.9
20260503203032 58 188 1.0 5.0 0.00 1.22 0.24 95 1010.8
20260503202606 58 140 2.0 4.0 0.00 1.22 0.24 95 1010.7
20260503202105 58 211 1.0 3.0 0.00 1.22 0.24 95 1010.7
20260503201535 59 173 1.0 3.0 0.00 1.22 0.24 95 1010.6
20260503201032 59 190 1.0 2.0 0.00 1.22 0.24 95 1010.5
20260503200541 59 182 0.0 5.0 0.00 1.22 0.24 95 1010.5
20260503200040 59 199 1.0 5.0 0.00 1.22 0.24 95 1010.4
20260503195542 59 154 2.0 6.0 0.00 1.22 0.24 95 1010.3
20260503195044 59 154 2.0 6.0 0.00 1.22 0.24 95 1010.3
20260503194533 59 173 1.0 3.0 0.00 1.22 0.24 94 1010.4
20260503194040 59 166 1.0 5.0 0.00 1.22 0.24 94 1010.3
20260503193540 59 174 1.0 6.0 0.00 1.22 0.24 94 1010.3
20260503193045 59 162 2.0 7.0 0.00 1.22 0.24 95 1010.3
20260503192550 59 146 4.0 7.0 0.00 1.22 0.24 94 1010.2
20260503192033 59 148 3.0 6.0 0.00 1.22 0.24 94 1010.1
20260503191534 59 171 2.0 6.0 0.00 1.22 0.24 94 1010.2
20260503191039 59 153 2.0 5.0 0.00 1.22 0.24 94 1010.2
20260503190605 59 147 2.0 5.0 0.00 1.22 0.24 93 1010.2
20260503190040 59 133 3.0 7.0 0.00 1.22 0.24 93 1010.1
20260503185542 59 148 4.0 7.0 0.00 1.22 0.24 93 1010.1
20260503185137 59 147 5.0 7.0 0.00 1.22 0.24 93 1009.9
20260503184539 60 128 3.0 7.0 0.00 1.22 0.24 93 1010.0
20260503184108 60 143 4.0 7.0 0.00 1.22 0.24 92 1009.9
20260503183530 60 129 5.0 7.0 0.00 1.22 0.24 92 1009.9
20260503183049 60 131 4.0 8.0 0.00 1.22 0.24 92 1009.9
20260503182555 60 152 4.0 8.0 0.00 1.22 0.24 92 1009.8
20260503182039 60 129 5.0 7.0 0.00 1.22 0.24 92 1009.8
20260503181526 61 140 3.0 7.0 0.00 1.22 0.24 92 1009.9
20260503181032 61 145 4.0 7.0 0.00 1.22 0.24 91 1009.9
20260503180559 61 129 4.0 6.0 0.00 1.22 0.24 91 1009.9
20260503180040 61 142 2.0 7.0 0.00 1.22 0.24 91 1009.8
20260503175529 61 107 4.0 7.0 0.00 1.22 0.24 91 1009.8
20260503175028 61 124 3.0 6.0 0.00 1.22 0.24 90 1009.9
20260503174536 61 172 2.0 5.0 0.00 1.22 0.24 90 1009.9
20260503174038 61 161 2.0 5.0 0.00 1.22 0.24 90 1009.8
20260503173553 62 122 1.0 4.0 0.00 1.22 0.24 89 1009.7
20260503173034 62 122 3.0 4.0 0.00 1.22 0.24 89 1009.6
20260503172542 62 144 3.0 4.0 0.00 1.22 0.24 88 1009.6
20260503172038 62 158 2.0 6.0 0.00 1.22 0.24 87 1009.7
20260503171547 63 159 2.0 6.0 0.00 1.22 0.24 87 1009.5
20260503170550 63 154 1.0 6.0 0.00 1.22 0.24 88 1009.5
20260503150534 59 307 3.0 9.0 0.47 1.18 0.24 91 1009.7
20260503131054 69 209 4.0 11.0 0.00 0.71 0.14 71 1010.4
20260503130537 70 204 5.0 8.0 0.00 0.71 0.14 70 1010.6
20260503110555 63 210 6.0 10.0 0.00 0.71 0.14 88 1011.3